Regional Weather Roundup
Issued by NWS New Orleans/Baton Rouge, LA

Home | Current Version | Previous Version | Text Only | Print | Product List | Glossary On
Versions: 1 2 3 4 5 6 7 8 9 10 11 12 13 14 15 16 17 18 19 20 21 22 23 24 25 26 27 28 29 30 31 32 33 34 35 36 37 38 39 40 41 42 43 44 45 46 47 48 49 50
304
ASUS44 KLIX 290011
RWRLIX
NEW ORLEANS REGIONAL WEATHER ROUNDUP
NATIONAL WEATHER SERVICE NEW ORLEANS LA
700 PM CDT SAT MAR 28 2015

NOTE: "FAIR" INDICATES FEW OR NO CLOUDS BELOW 12,000 FEET WITH NO
      SIGNIFICANT WEATHER AND/OR OBSTRUCTIONS TO VISIBILITY.
      SKY/WX - SKY CONDITION AND SIGNIFICANT WEATHER.
      TMP - AIR TEMPERATURE.     DP    - DEWPOINT TEMPERATURE.
      RH  - RELATIVE HUMIDITY.   PRES  - PRESSURE.
      HI  - HEAT INDEX.          WCI   - WIND CHILL INDEX.

*  THESE STATIONS ARE NOT NWS OR FAA STATIONS AND ARE NOT UNDER
   NWS QUALITY CONTROL.

LAZ038-040-048-061>063-065>067-069-290100-
SOUTHEAST LOUISIANA

CITY           SKY/WX    TMP DP  RH WIND       PRES   REMARKS
N.O. AUDUBON     N/A     64 N/A N/A MISG        N/A
6HR MIN TEMP:  64; 6HR MAX TEMP:  70;

N.O. INTL ARPT PTCLDY    64  46  52 S14       30.19R
6HR MIN TEMP:  64; 6HR MAX TEMP:  70;

N.O. LAKEFRONT CLEAR     64  46  52 S14       30.20R
6HR MIN TEMP:  64; 6HR MAX TEMP:  68;

SLIDELL        CLEAR     62  44  51 S8        30.19R
6HR MIN TEMP:  62; 6HR MAX TEMP:  67;

BATON ROUGE    CLEAR     69  46  43 S12       30.14R
6HR MIN TEMP:  66; 6HR MAX TEMP:  74;

BOOTHVILLE     CLEAR     60  49  66 E6        30.22R
6HR MIN TEMP:  60; 6HR MAX TEMP:  63;

BELLE CHASSE   CLEAR     60  46  59 SE9       30.19R
6HR MIN TEMP:  60; 6HR MAX TEMP:  67;

BOGALUSA*        N/A     69  41  36 CALM      30.18R
6HR MIN TEMP:  63; 6HR MAX TEMP:  71;

GALLIANO*      CLEAR     64  51  61 CALM      30.20S
6HR MIN TEMP:  64; 6HR MAX TEMP:  68;

NEW ROADS*       N/A     70  48  45 S8        30.14R
6HR MIN TEMP:  64; 6HR MAX TEMP:  73;

GONZALES*        N/A     67  51  57 E3        30.16R
6HR MIN TEMP:  66; 6HR MAX TEMP:  73;

HAMMOND*       CLEAR     63  45  51 SE7       30.19R
HOUMA*         CLEAR     63  52  67 SE6       30.19R
PORT FOURCHON* CLEAR     64  54  68 SE9       30.23S

$$

MSZ070-080>082-290100-
SOUTHERN MISSISSIPPI

CITY           SKY/WX    TMP DP  RH WIND       PRES   REMARKS
MCCOMB         CLEAR     64  43  46 SE5       30.15S
6HR MIN TEMP:  61; 6HR MAX TEMP:  68;

GULFPORT       CLEAR     60  43  53 S5        30.19R
6HR MIN TEMP:  58; 6HR MAX TEMP:  62;

BILOXI         CLEAR     59  42  53 S6        30.19R
6HR MIN TEMP:  59; 6HR MAX TEMP:  62;

PASCAGOULA     CLEAR     58  44  60 CALM      30.20R
6HR MIN TEMP:  58; 6HR MAX TEMP:  65;

STENNIS ARPT*  CLEAR     61  37  41 S5        30.19S

$$

COASTAL OBSERVATIONS
LAKE AND NEARSHORE STATIONS

STATION/POSITION TIME  TEMP    WIND        PRES    WAVE
                       AIR SEA DIR/SP/G            HT/PER
                 (UTC) (F)     (DEG/KT/KT) (MB)    (FT/S)
PASCAGOULA       2300   60     200/  4/  5 1021.9
WAVELAND YACHT   2300   61 65  180/  5/  8 1022.0
GRAND ISLE       2300   63 67  140/  6/ 11 1022.1
SOUTHWEST PASS   2300   69 53  110/  9/ 10 1023.0
NEW CANAL        2300   66     150/  5/ 10 1022.2
SHELL BEACH      2300   60 68  140/ 12/ 14 1022.2

OFFSHORE STATIONS

STATION/POSITION TIME  TEMP    WIND        PRES    WAVE
                       AIR SEA DIR/SP/G            HT/PER
                 (UTC) (F)     (DEG/KT/KT) (MB)    (FT/S)
64 S DAUPHIN ISL 2350   60 72  100/  4/  8 1023.4    1/ 4

$$




USA.gov is the U.S. government's official web portal to all federal, state and local government web resources and services.